星链-31292 (STARLINK-31292 )

导读 | 豆包AI

STARLINK-31292是美国太空探索技术公司(SpaceX)旗下星链(Starlink)星座的一颗互联网通信卫星,于2024年2月29日发射升空。作为星链星座的组成部分,它运行在近地轨道,主要为全球范围内尤其是网络基础设施匮乏地区提供高速宽带互联网接入服务,进一步扩充了星链星座的服务覆盖能力。

基本信息
目录编号:
59081
目录名称:
STARLINK-31292
国际标识:
2024-041H
轨道中心:
EARTH
卫星名称:
星链-31292
卫星全名:
星链-31292 (STARLINK-31292 )
卫星状态:
在轨 (已飞行745 天)
发射日期:
2024-02-29 UTC
国别 :
美国 (US)
星等 :
--
轨道信息
数据来源 国际轨道数据 AOE轨道数据
星历时间 2026-03-15T05:56:57+0800
1天前
查看轨道信息
2026-03-11T17:00:00+0800
4天前
查看轨道信息
半长轴 6861.189km 6861.261km
偏心率 0.0001148 0.0001523
轨道倾角 43.000° 43.002°
近地点辐角 264.520° 260.387°
升交点赤经 280.939° 300.930°
平近点角 95.552° 51.830°
近地点 482.264km 482.079km
远地点 483.84km 484.169km
周期 94.267分钟 94.268分钟
每日圈数 15.275793 15.275551
详细信息
固有亮度:
5
最大亮度:
0.3
卫星平台:
Starlink v2.0 mini
覆盖范围:
全球
运营商:
太空探索技术公司
运营商所在国:
美国
制造商(研发单位):
太空探索技术公司
制造商所在国:
美国
使用方式:
暂无
卫星简介
星链(Starlink)计划是由太空探索技术公司(SpaceX)提出的一个巨型低轨卫星互联网星座项目,计划在2019年至2024年间在太空搭建由约1.2万颗卫星组成的“星链”网络,其中1584颗将部署在地球上空550千米处的近地轨道,并从2020年开始工作。该卫星仍在工作。
2D轨道图
3D轨道图
轨道高度分析图
轨道倾角分析图
轨道综合分析图
查看轨道综合分析图